DTUSAT 1 27842U 03031C 09006.50696231 -.00000008 00000-0 16381-4 0 4590 2 27842 098.7082 018.9364 0008834 228.6168 131.4257 14.20961613286389 CUTE-1 1 27844U 03031E 09005.93028315 +.00000004 +00000-0 +22192-4 0 04839 2 27844 098.7155 017.3762 0009072 250.4701 109.5485 14.20615518286220 QUAKESAT 1 27845U 03031F 09006.96476558 .00000057 00000-0 47126-4 0 4595 2 27845 098.7210 017.7837 0008346 267.1655 092.8562 14.20242017286282 AAU CUBESAT 1 27846U 03031G 09005.52079694 +.00000007 +00000-0 +23272-4 0 03991 2 27846 098.7079 017.9582 0008925 230.6262 129.4118 14.20962294286243 CANX-1 1 27847U 03031H 09006.02035086 .00000002 00000-0 21047-4 0 4102 2 27847 098.7091 018.4450 0008959 229.0556 130.9850 14.20946277286268 CUBESAT XI-IV 1 27848U 03031J 09006.02625753 .00000013 00000-0 26626-4 0 4299 2 27848 098.7156 016.5373 0009131 255.8292 104.1862 14.20421221286208 UWE-1 1 28892U 05043C 09005.99099785 -.00000055 00000-0 -18773-5 0 2335 2 28892 098.0745 260.5094 0018065 132.6137 227.6603 14.59694528170189 CUBESAT XI-V 1 28895U 05043F 09006.98201132 .00000198 00000-0 50887-4 0 2044 2 28895 098.0804 261.9279 0018779 130.1744 230.1128 14.59731434170210 SSETI-EXPRESS DEB 1 28897U 05043H 09007.12802985 .00000109 00000-0 32306-4 0 7421 2 28897 098.0761 261.9851 0017666 130.1852 230.0906 14.59906290162526 CUTE 1.7 1 28941U 06005C 09007.01721826 .00028472 27682-5 15800-3 0 7019 2 28941 098.1227 153.6256 0128362 015.0611 345.4374 15.68939985161864 GENESAT 1 29655U 06058C 09005.73267709 .00011364 00000-0 12876-3 0 6024 2 29655 040.0232 118.5280 0001578 239.4007 120.6652 15.62123417117037 MAST 1 31126U 07012K 09006.05203374 .00000072 00000-0 26664-4 0 4972 2 31126 098.0139 068.0929 0095786 063.2936 297.8030 14.53469830 91487 LIBERTAD 1 1 31128U 07012M 09006.35094913 -.00000046 00000-0 00000+0 0 5248 2 31128 098.0150 066.9139 0103938 066.9032 294.3096 14.52007548 91418 CP3 1 31129U 07012N 09007.07076669 .00000078 00000-0 28505-4 0 6124 2 31129 098.0166 067.6796 0103707 064.4421 296.7455 14.52096252 91507 CAPE 1 1 31130U 07012P 09006.13677958 .00000067 00000-0 25996-4 0 4969 2 31130 098.0153 066.7230 0103979 067.4860 293.7316 14.52023092 91177 CP4 1 31132U 07012Q 09007.17872373 -.00000039 00000-0 17305-5 0 5039 2 31132 098.0202 070.8918 0086783 055.2896 305.6381 14.55172975 91612 AEROCUBE 2 1 31133U 07012R 09006.42412446 .00000227 00000-0 60249-4 0 4882 2 31133 098.0192 070.1655 0086687 057.5293 303.4256 14.55168210 91503